Location: Godzisko
(49.9648°N, 19.4576°E)
Time: 06:37:34
(UTC+00:00)

Helios 1B rocket - Pass Details

Date: 20 April 2021
Orbit: 574 x 582 km, 98.2° (Epoch: 06 May)

Event Time Altitude Azimuth Distance (km) Brightness Sun altitude
Rises 01:03:53 0° 8° (N) 2,810 6.9 -21.0°
Reaches altitude 10° 01:06:08 10° 1° (N) 1,907 5.8 -20.8°
Maximum altitude 01:10:00 40° 292° (WNW) 871 3.1 -20.4°
Enters shadow 01:10:23 39° 277° (W) 887 3.1 -20.4°
